Regional Weather Roundup
Issued by NWS

Home | Current Version | Previous Version | Graphics & Text | Print | Product List | Glossary On
Versions: 1 2 3 4 5 6 7 8 9 10 11 12 13 14 15 16 17 18 19 20 21 22 23 24 25 26 27 28 29 30 31 32 33 34 35 36 37 38 39 40 41 42 43 44 45 46 47 48 49 50
000
ASUS44 KMEG 290310
RWRTN
TENNESSEE HOURLY STATE WEATHER ROUNDUP
NATIONAL WEATHER SERVICE MEMPHIS TN
1000 PM CDT TUE MAR 28 2017

TNZ002-004-019-021-049-052-054-088>092-290400-
WEST TENNESSEE

CITY           SKY/WX    TMP DP  RH WIND       PRES   REMARKS
MEMPHIS INTL   CLEAR     68  55  63 NE12      29.97R
NWS MEMPHIS      N/A     65 N/A N/A MISG        N/A
JACKSON        CLEAR     62  54  74 NE7       30.01R
DYERSBURG      CLEAR     60  54  80 NE10      30.03R
SOMERVILLE     CLEAR     64  55  72 NE5       29.98S
BOLIVAR        CLEAR     63  54  72 VRB5      29.99R
PARIS          CLEAR     54  52  94 NE7       30.05S
HUNTINGDON     CLEAR     59  55  88 NE9       30.03R
SAVANNAH       CLEAR     59  55  88 CALM      30.00R
$$

TNZ008-025-027-028-033-062-065-066-290400-
NORTH MIDDLE TENNESSEE

CITY           SKY/WX    TMP DP  RH WIND       PRES   REMARKS
NASHVILLE      CLEAR     59  53  80 NE6       30.06R
PORTLAND       CLEAR     55  54  94 NE5       30.07S
CLARKSVILLE    CLEAR     54  51  90 NE6       30.05S FOG
SMYRNA         CLEAR     60  54  80 NE7       30.06S
COOKEVILLE     CLOUDY    54  52  94 CALM      30.06R
GALLATIN       CLEAR     57  54  88 N6        30.08S
CROSSVILLE     CLEAR     56  48  74 N5        30.08R
$$

TNZ061-075-076-078-094-096-097-290400-
SOUTH MIDDLE TENNESSEE

CITY           SKY/WX    TMP DP  RH WIND       PRES   REMARKS
FAYETTEVILLE   CLEAR     63  54  72 NE7       30.03R
TULLAHOMA      CLEAR     61  52  72 NE5         N/A
WINCHESTER     CLEAR     55  52  88 CALM      30.04S
MCMINNVILLE    CLEAR     55  52  88 NE5       30.06R
COLUMBIA       CLEAR     63  61  94 NE5       30.03R
SHELBYVILLE    CLEAR     59  54  82 E3        30.05S
$$

TNZ017-018-042-046-047-290400-
NORTHEAST TENNESSEE

CITY           SKY/WX    TMP DP  RH WIND       PRES   REMARKS
TRI CITIES     CLOUDY    62  50  64 CALM      30.06R
ELIZABETHTON   CLOUDY    61  52  72 CALM      30.06R
$$

TNZ012-013-036-069-073-074-290400-
CENTRAL EAST TENNESSEE

CITY           SKY/WX    TMP DP  RH WIND       PRES   REMARKS
KNOXVILLE      PTCLDY    62  49  62 N7        30.04R
OAK RIDGE      CLEAR     59  50  72 CALM      30.06R
DOWNTOWN KNOXV CLEAR     59  54  82 CALM      30.05R
GATLINBURG     CLEAR     59  50  72 CALM      30.05R
MORRISTOWN     CLOUDY    61  52  72 CALM      30.05S
JACKSBORO      CLEAR     57  50  77 CALM      30.10R
$$

TNZ083-085-099-290400-
SOUTHEAST TENNESSEE

CITY           SKY/WX    TMP DP  RH WIND       PRES   REMARKS
CHATTANOOGA    CLEAR     64  51  62 NE6       30.04R
$$

SKY/WX REPORTED AS FAIR MEANS FEW OR NO CLOUDS BELOW
12 THOUSAND FEET.





USA.gov is the U.S. government's official web portal to all federal, state and local government web resources and services.